Location: Unspecified
(48.5670°N, 0.0000°E)
Time: 01:05:20
(UTC+00:00)

Altair - Pass Details

Date: 02 September 2019
Orbit: 1501 x 1683 km, 47.2° (Epoch: 19 September)

Event Time Altitude Azimuth Distance (km) Brightness Sun altitude
Exits shadow 00:52:38 61° 156° (SSE) 1,819 7.5 -32.2°
Maximum altitude 00:52:44 61° 154° (SSE) 1,818 7.5 -32.2°
Drops below altitude 10° 01:02:11 10° 77° (ENE) 3,796 9.9 -31.7°
Sets 01:05:16 0° 74° (ENE) 4,757 10.5 -31.6°
